Orlando International, FL

2:45 PM EDT on June 23, 2017 (GMT -0400)
Orlando International

Weather History for KMCO - June, 2013

Change the Weather History Date:

Sunday, June 9, 2013

  Actual Average Record
Temperature  
Mean Temperature 80 °F 81 °F  
Max Temperature 89 °F 91 °F 100 °F (1907)
Min Temperature 71 °F 71 °F 58 °F (1921)
Degree Days  
Heating Degree Days 0 0  
Month to date heating degree days 0 0  
Since 1 June heating degree days 0 0  
Since 1 July heating degree days 461 571  
Cooling Degree Days 15 16  
Month to date cooling degree days 138 140  
Year to date cooling degree days 1010 941  
Since 1 June cooling degree days 138 140  
Growing Degree Days 32 (Base 50)    
Moisture  
Dew Point 75 °F    
Average Humidity 75    
Maximum Humidity 100    
Minimum Humidity 49    
Precipitation  
Precipitation 0.08 in 0.25 in 2.76 in (1949)
Month to date precipitation 7.32 2.14  
Year to date precipitation 18.19 16.77  
Sea Level Pressure  
Sea Level Pressure 30.10 in    
Wind  
Wind Speed 6 mph (ESE)    
Max Wind Speed 17 mph    
Max Gust Speed 21 mph    
Visibility 10 miles    
Events Rain , Thunderstorm    
T = Trace of Precipitation, MM = Missing Value Source: NWS Daily Summary

Daily Weather History Graph

Daily Weather History Graph

Search for Another Location

Airport or City:

Trip Planner

Search our weather history database for the weather conditions in past years. The results will help you decide how hot, cold, wet, or windy it might be!

Date:

Astronomy

Jun. 09, 2013 Rise Set
Actual Time 6:27 AM EDT 8:22 PM EDT
Civil Twilight 6:00 AM EDT 8:48 PM EDT
Nautical Twilight 5:28 AM EDT 9:21 PM EDT
Astronomical Twilight 4:53 AM EDT 9:55 PM EDT
Moon 7:18 AM EDT (6/9) 9:13 PM EDT (6/9)
Length of Visible Light 14h 48m
Length of Day
13h 54m
New Moon, 1% of the Moon is Illuminated
Jun 9
New Moon
Jun 16
First Quarter
Jun 23
Full
Jun 30
Last Quarter
Jul 8
New

Hourly Weather History & Observations

Time (EDT) Temp. Heat Index Dew Point Humidity Pressure Visibility Wind Dir Wind Speed Gust Speed Precip Events Conditions
12:53 AM 73.4 °F - 73.4 °F 100% 30.12 in 10.0 mi NNE 3.5 mph - N/A   Mostly Cloudy
1:53 AM 73.4 °F - 73.4 °F 100% 30.13 in 10.0 mi East 5.8 mph - N/A   Mostly Cloudy
2:53 AM 71.6 °F - 71.6 °F 100% 30.11 in 10.0 mi ESE 8.1 mph - N/A   Mostly Cloudy
3:53 AM 71.6 °F - 71.6 °F 100% 30.11 in 10.0 mi East 4.6 mph - N/A   Mostly Cloudy
4:53 AM 71.6 °F - 71.6 °F 100% 30.10 in 10.0 mi East 5.8 mph - N/A   Overcast
5:53 AM 71.6 °F - 71.6 °F 100% 30.11 in 10.0 mi Calm Calm - N/A   Overcast
8:53 AM 73.4 °F - 73.4 °F 100% 30.13 in 10.0 mi East 4.6 mph - N/A   Mostly Cloudy
9:53 AM 82.4 °F 90.9 °F 77.0 °F 84% 30.13 in 10.0 mi SSE 9.2 mph - N/A   Scattered Clouds
10:53 AM 89.6 °F 108.2 °F 80.6 °F 75% 30.13 in 10.0 mi SSE 11.5 mph - N/A   Mostly Cloudy
11:53 AM 84.2 °F 94.1 °F 77.0 °F 79% 30.13 in 10.0 mi South 6.9 mph - N/A   Mostly Cloudy
12:53 PM 77.0 °F - 71.6 °F 83% 30.13 in 10.0 mi SE 5.8 mph - N/A   Mostly Cloudy
1:53 PM 93.2 °F 100.5 °F 71.6 °F 49% 30.11 in 10.0 mi SE 8.1 mph - N/A   Mostly Cloudy
2:53 PM 91.4 °F 98.4 °F 71.6 °F 52% 30.09 in 10.0 mi ESE 13.8 mph - N/A   Mostly Cloudy
3:53 PM 86.0 °F 101.9 °F 80.6 °F 84% 30.07 in 10.0 mi SE 6.9 mph - N/A   Mostly Cloudy
4:53 PM 86.0 °F 96.9 °F 77.0 °F 74% 30.06 in 10.0 mi ESE 12.7 mph 19.6 mph N/A   Mostly Cloudy
5:17 PM 86.0 °F 95.1 °F 75.2 °F 70% 30.06 in 10.0 mi ESE 12.7 mph - N/A Thunderstorm Thunderstorm
5:53 PM 80.6 °F 87.1 °F 77.0 °F 89% 30.06 in 10.0 mi South 8.1 mph - N/A Thunderstorm Thunderstorm
6:08 PM 80.6 °F 89.3 °F 80.6 °F 100% 30.06 in 10.0 mi South 6.9 mph - N/A Rain Light Rain
6:53 PM 82.4 °F 88.2 °F 73.4 °F 74% 30.06 in 10.0 mi ESE 11.5 mph - N/A   Mostly Cloudy
7:53 PM 80.6 °F 86.2 °F 75.2 °F 84% 30.09 in 10.0 mi East 12.7 mph - N/A   Overcast
8:53 PM 78.8 °F - 75.2 °F 89% 30.10 in 10.0 mi East 10.4 mph - N/A   Overcast
9:53 PM 78.8 °F - 77.0 °F 94% 30.10 in 10.0 mi ESE 10.4 mph - N/A   Overcast
10:53 PM 78.8 °F - 77.0 °F 94% 30.11 in 10.0 mi SE 10.4 mph - N/A   Overcast
11:53 PM 77.0 °F - 77.0 °F 100% 30.12 in 10.0 mi SSE 10.4 mph - N/A   Mostly Cloudy